FW3095 Weather Reports


Display with metric or nautical units.
time (UTC)temp
F
wind
direction
speed
MPH
gust
MPH
rain 1hr
in
rain 24hr
in
rain mn
in
humidity
%
barometer
mb
20260504044558 52 217 1.0 5.0 0.00 0.09 0.00 77 980.6
20260504043104 52 194 0.0 6.0 0.00 0.09 0.00 77 980.8
20260504041555 52 212 1.0 6.0 0.00 0.09 0.00 77 980.8
20260504040123 52 208 1.0 5.0 0.00 0.09 0.00 77 980.9
20260504034550 52 235 1.0 3.0 0.00 0.09 0.09 77 981.1
20260504033050 53 202 2.0 4.0 0.00 0.09 0.09 76 981.2
20260504031559 53 156 0.0 3.0 0.00 0.09 0.09 76 981.4
20260504030049 53 203 1.0 7.0 0.00 0.09 0.09 76 981.4
20260504024549 53 212 1.0 3.0 0.00 0.09 0.09 76 981.3
20260504023047 54 231 0.0 5.0 0.00 0.09 0.09 75 981.4
20260504021548 54 173 2.0 7.0 0.00 0.09 0.09 74 981.3
20260504020058 54 159 3.0 5.0 0.00 0.09 0.09 74 981.2
20260504014545 55 159 3.0 6.0 0.00 0.09 0.09 72 981.2
20260504013045 55 162 3.0 9.0 0.00 0.09 0.09 72 981.2
20260504011543 55 160 3.0 6.0 0.00 0.09 0.09 72 981.4
20260504010045 55 155 3.0 6.0 0.00 0.09 0.09 72 981.4
20260504004542 56 149 3.0 6.0 0.00 0.09 0.09 69 981.5
20260504003043 56 165 3.0 6.0 0.00 0.09 0.09 68 981.6
20260504001549 57 156 1.0 3.0 0.00 0.09 0.09 67 981.6
20260504000039 57 221 1.0 8.0 0.00 0.09 0.09 66 981.7
20260503234559 58 253 4.0 8.0 0.00 0.09 0.09 64 981.8
20260503233044 58 220 1.0 8.0 0.00 0.09 0.09 64 982.0
20260503231537 58 248 6.0 11.0 0.00 0.09 0.09 62 982.0
20260503230042 59 200 2.0 10.0 0.00 0.09 0.09 62 982.2
20260503224533 59 214 6.0 13.0 0.00 0.09 0.09 60 982.2
20260503223033 60 200 4.0 14.0 0.00 0.09 0.09 61 982.2
20260503221536 59 234 4.0 10.0 0.00 0.09 0.09 61 982.3
20260503220031 59 226 2.0 10.0 0.00 0.09 0.09 63 982.4
20260503214528 59 205 5.0 13.0 0.00 0.09 0.09 62 982.5
20260503213027 58 127 5.0 10.0 0.00 0.09 0.09 64 982.6
20260503211526 56 159 7.0 11.0 0.00 0.09 0.09 79 982.9
20260503210024 55 134 6.0 12.0 0.00 0.09 0.09 80 983.1
20260503204523 54 88 10.0 13.0 0.00 0.09 0.09 80 983.7
20260503203020 53 120 6.0 10.0 0.00 0.09 0.09 83 983.9
20260503201515 52 126 6.0 11.0 0.00 0.09 0.09 82 984.5
20260503200013 51 101 5.0 10.0 0.01 0.09 0.09 83 984.8
20260503194512 50 99 3.0 7.0 0.06 0.09 0.09 86 985.3
20260503193007 49 76 2.0 7.0 0.09 0.09 0.09 84 986.0
20260503191505 49 121 0.0 3.0 0.09 0.09 0.09 86 986.2
20260503190005 49 238 0.0 3.0 0.08 0.08 0.08 83 986.7
20260503184502 50 223 1.0 15.0 0.03 0.03 0.03 82 987.3
20260503183001 51 217 7.0 17.0 0.00 0.00 0.00 79 987.2
20260503181600 53 243 15.0 27.0 0.00 0.00 0.00 70 986.6
20260503181502 54 221 16.0 27.0 0.00 0.00 0.00 70 986.7
20260503180108 58 252 12.0 20.0 0.00 0.00 0.00 57 986.4
20260503174601 59 248 7.0 19.0 0.00 0.00 0.00 55 986.6
20260503173107 60 252 11.0 18.0 0.00 0.00 0.00 52 986.7
20260503171554 60 234 10.0 18.0 0.00 0.00 0.00 52 987.1
20260503081520 39 229 0.0 3.0 0.00 0.00 0.00 76 988.3